sat.trackr.live / text

‹ back to catalog

KUIPER-00218

NORAD 67780 · 2026-030S

PAYLOAD ACTIVE UNKNOWN

§ Identity

Operator
Country
US
Launch date
2026-02-12
Launch site
FRGUI
Launch vehicle
Mass (kg)
RCS (m²)

External: N2YO · Heavens-Above · Gunter

§ Orbital elements

Epoch: 2026-09-20T04:18:41.070528Z

Period
97.30 min
Inclination
51.8988°
Eccentricity
0.0000652
Mean motion
14.79927846 rev/d
Perigee alt
629.1 km
Apogee alt
630.0 km
Semi-major
7,007.7 km
B*
2.2014e-4
RAAN
65.5481°
Arg perigee
133.1703°
Mean anomaly
226.9314°
Rev number
3,408

§ Raw data

KUIPER-002181 67780U 26030S   26263.17964202  .00001457  00000+0  22014-3 0  99972 67780  51.8988  65.5481 0000652 133.1703 226.9314 14.79927846 34088

JSON: /api/v1/satellites/67780 · /tle

For live sub-satellite position, see the globe view (requires WebGL).

§ Visibility from observer

Set your observer location to see the next 7 days of passes ≥ 10°. The values pass through the URL so the page stays shareable.

No JS? Fill the form by hand. The geolocation button needs JavaScript.